EHI
0 0 0 0 0 0 0 0 0 0 0 0 0 0 0 0 0 0 0 0 0 0 0 0 0 0 0 0 0 0 0 0 0 0 0 0 0 0 0 0 0 0 0
0 0 0 0 0 0 0 0 0 0 0 0 0 0 0 0 0 0 0 0 0 0 0 0 0 0 0 0 0 0 0 0 0 0 0 0 0 0 0 0 0 0 0
0 0 0 0 0 0 0 0 0 0 0 0 0 0 0 0 0 0 0 0 0 0 0 0 0 0 0 0 0 0 0 0 0 0 0 0 0 0 0 0 0 0 0
0 0 0 0 0 0 0 0 0 0 0 0 0 0 0 0 0 0 0 0 0 0 0 0 0 0 0 0 0 0 0 0 0 0 0 0 0 0 0 0 0 0 0
0 0 0 0 0 0 0 0 0 0 0 0 0 0 0 0 0 0 0 0 0 0 0 0 0 0 0 0 0 0 0 0 0 0 0 0 0 0 0 0 0 0 0
0 0 0 0 0 0 0 0 0 0 0 0 0 0 0 0 0 0 0 0 0 0 0 0 0 0 0 0 0 0 0 0 0 0 0 0 0 0 0 0 0 0 0
0 0 0 0 0 0 0 0 0 0 0 0 0 0 0 0 0 0 0 0 0 0 0 0 0 0 0 0 0 0 0 0 0 0 0 0 0 0 0 0 0 0 0
0 0 0 0 0 0 0 0 0 0 0 0 0 0 0 0 0 0 0 0 0 0 0 0 0 0 0 0 0 0 0 0 0 0 0 0 0 0 0 0 0 0 0
0 0 0 0 0 0 0 0 0 0 0 0 0 0 0 0 0 0 0 0 0 0 0 0 0 0 0 0 0 0 0 0 0 0 0 0 0 0 0 0 0 0 0
0 0 0 0 0 0 0 0 0 0 0 0 0 0 0 0 0 0 0 0 0 0 0 0 0 0 0 0 0 0 0 0 0 0 0 0 0 0 0 0 0 0 0
0 0 0 0 0 0 0 0 0 0 0 0 0 0 0 0 0 0 0 0 0 0 0 0 0 0 0 0 0 0 0 0 0 0 0 0 0 0 0 0 0 0 0
0 0 0 0 0 0 0 0 0 0 0 0 0 0 0 0 0 0 0 0 0 0 0 0 0 0 0 0 0 0 0 0 0 0 0 0 0 0 0 0 0 0 0
0 0 0 0 0 0 0 0 0 0 0 0 0 0 0 0 0 0 0 0 0 0 0 0 0 0 0 0 0 0 0 0 0 0 0 0 0 0 0 0 0 0 0
0 0 0 0 0 0 0 0 0 0 0 0 0 0 0 0 0 0 0 0 0 0 0 0 0 0 0 0 0 0 0 0 0 0 0 0 0 0 0 0 0 0 0
0 0 0 0 0 0 0 0 0 0 0 0 0 0 0 0 0 0 0 0 0 0 0 0 0 0 0 0 0 0 0 0 0 0 0 0 0 0 0 0 0 0 0
0 0 0 0 0 0 0 0 0 0 0 0 0 0 0 0 0 0 0 0 0 0 0 0 0 0 0 0 0 0 0 0 0 0 0 0 0 0 0 0 0 0 0
0 0 0 0 0 0 0 0 0 0 0 0 0 0 0 0 0 0 0 0 0 0 0 0 0 0 0 0 0 0 0 0 0 0 0 0 0 0 0 0 0 0 0
0 0 0 0 0 0 0 0 0 0 0 0 0 0 0 0 0 0 0 0 0 0 0 0 0 0 0 0 0 0 0 0 0 0 0 0 0 0 0 0 0 0 0
0 0 0 0 0 0 0 0 0 0 0 0 0 0 0 0 0 0 0 0 0 0 0 0 0 0 0 0 0 0 0 0 0 0 0 0 0 0 0 0 0 0 0
0 0 0 0 0 0 0 0 0 0 0 0 0 0 0 0 0 0 0 0 0 0 0 0 0 0 0 0 0 0 0 0 0 0 0 0 0 0 0 0 0 0 0
0 0 0 0 0 0 0 0 0 0 0 0 0 0 0 0 0 0 0 0 0 0 0 0 0 0 0 0 0 0 0 0 0 0 0 0 0 0 0 0 0 0 0
0 0 0 0 0 0 0 0 0 0 0 0 0 0 0 0 0 0 0 0 0 0 0 0 0 0 0 0 0 0 0 0 0 0 0 0 0 0 0 0 0 0 0
0 0 0 0 0 0 0 0 0 0 0 0 0 0 0 0 0 0 0 0 0 0 0 0 0 0 0 0 0 0 0 0 0 0 0 0 0 0 0 0 0 0 0
0 0 0 0 0 0 0 0 0 0 0 0 0 0 0 0 0 0 0 0 0 0 0 0 0 0 0 0 0 0 0 0 0 0 0 0 0 0 0 0 0 0 0
0 0 0 0 0 0 0 0 0 0 0 0 0 0 0 0 0 0 0 0 0 0 0 0 0 0 0 0 0 0 0 0 0 0 0 0 0 0 0 0 0 0 0
0 0 0 0 0 0 0 0 0 0 0 0 0 0 0 0 0 0 0 0 0 0 0 0 0 0 0 0 0 0 0 0 0 0 0 0 0 0 0 0 0 0 0
Wind_Speed
3 3 1 1 1 1 2 3 3 4 5 5 5 6 6 7 7 6 6 17 21 21 23 24 25 27 28 29 29 30 30 31 31 31 32 32 33 33 33 32 31 30 29
4 3 3 1 1 1 1 1 3 3 3 4 6 6 7 7 7 7 6 10 18 20 22 23 25 27 28 29 30 30 31 32 32 32 32 33 34 34 34 33 32 31 31
5 4 3 3 2 2 2 2 3 3 4 4 6 7 7 7 7 8 8 6 7 15 20 23 25 27 28 29 30 31 32 32 33 33 33 34 34 35 35 34 34 33 32
6 5 4 4 3 3 2 3 3 3 4 4 5 6 6 7 8 8 7 6 5 7 12 22 25 26 28 29 31 32 32 33 33 34 34 34 35 35 36 35 35 34 33
7 5 5 4 4 3 3 4 3 3 4 5 6 6 6 7 8 9 7 7 7 7 6 15 22 25 27 29 30 32 33 33 34 34 34 35 35 36 36 36 36 35 34
8 6 5 5 4 3 4 4 4 4 4 5 7 8 7 8 7 7 8 6 6 8 8 9 9 14 25 28 30 31 33 34 34 35 35 35 35 36 36 37 36 36 35
8 7 5 5 5 5 5 5 4 4 4 3 4 5 7 8 8 6 5 5 7 8 8 8 7 7 10 23 28 31 33 34 35 36 35 35 35 35 36 37 36 36 35
9 8 7 6 6 5 5 5 5 3 3 2 2 4 5 4 3 7 6 7 8 6 7 10 8 10 9 8 17 30 32 33 35 36 36 35 35 35 35 36 36 36 36
10 8 8 7 6 6 6 6 6 6 4 3 4 3 3 5 6 5 6 7 7 6 7 7 10 10 11 10 11 20 30 32 34 36 36 35 34 34 34 35 36 36 36
9 9 8 8 7 6 6 7 6 5 5 5 3 5 6 5 5 7 5 4 7 8 8 10 10 10 11 10 15 25 30 32 34 36 36 35 33 32 32 33 33 35 35
9 9 9 8 8 7 7 7 6 6 5 6 5 4 6 6 7 8 13 11 7 6 8 8 8 9 11 11 10 18 30 32 34 35 35 34 33 32 30 29 30 31 33
7 9 9 8 8 7 8 8 8 8 7 8 7 6 5 6 6 7 11 15 15 10 8 7 9 10 10 10 15 27 30 32 32 33 34 33 33 32 30 28 27 26 27
8 11 10 9 8 8 8 8 7 8 8 9 8 7 7 9 8 9 12 15 18 15 8 7 9 9 10 8 10 26 28 31 31 32 33 33 32 31 30 29 27 25 23
10 9 11 10 9 9 9 8 7 8 7 9 10 9 8 9 8 9 11 13 17 17 12 8 6 8 8 8 14 27 17 29 31 32 32 32 31 30 29 29 27 25 23
8 10 10 10 10 9 9 8 7 8 7 9 9 10 9 9 9 9 10 11 12 18 19 9 5 6 7 8 17 13 12 24 31 32 31 31 30 30 29 28 27 25 23
10 10 11 10 10 9 9 8 8 8 9 9 8 10 11 10 9 10 11 11 12 15 19 12 9 8 10 12 19 15 13 29 30 31 31 30 29 29 28 27 26 25 23
12 12 12 11 10 10 9 9 9 8 10 11 10 11 13 12 10 10 10 11 12 12 17 16 11 10 11 13 13 12 13 13 14 28 30 29 29 29 28 27 25 24 22
13 12 11 11 11 10 9 10 10 10 10 11 12 11 13 11 13 11 11 12 12 12 15 19 14 11 13 13 13 13 13 13 11 23 29 29 28 27 27 26 25 24 22
12 12 12 12 11 10 9 10 10 10 11 12 12 12 13 12 14 12 12 13 12 13 13 15 16 12 11 10 12 12 13 11 13 17 23 25 25 26 26 25 25 24 22
13 13 12 12 11 10 10 10 10 10 11 12 12 13 13 13 14 14 13 14 13 13 13 13 14 13 12 10 9 10 11 9 10 11 16 18 22 24 24 24 24 23 22
14 12 12 11 10 9 9 9 10 11 11 12 12 12 13 16 19 17 14 11 11 11 11 12 13 12 11 9 9 9 11 10 10 9 10 10 10 9 11 17 20 21 21
12 12 12 11 11 9 14 18 14 11 11 12 12 10 10 13 18 23 26 25 22 16 13 11 11 12 12 11 10 10 10 11 11 5 7 9 8 9 9 8 17 22 22
13 12 12 11 11 13 18 19 20 12 9 9 9 8 9 10 16 10 18 25 23 23 22 15 13 13 14 12 12 14 13 13 13 8 8 12 8 10 9 11 21 22 23
12 12 12 12 11 13 18 18 19 11 8 8 8 9 10 10 11 15 14 14 10 10 15 11 11 14 13 12 12 13 13 12 11 9 9 11 8 9 10 9 19 23 23
12 12 10 12 12 12 17 17 17 6 7 8 8 9 9 9 18 24 16 11 9 9 16 20 21 20 23 23 18 10 8 9 10 8 6 7 7 8 9 9 12 21 23
12 12 11 11 12 11 14 17 16 6 7 7 7 8 14 15 19 22 12 8 10 11 9 9 12 15 13 14 19 10 7 8 8 7 4 5 5 5 6 5 6 7 11
Wind_Direction
171 170 167 141 27 13 9 355 351 344 334 322 310 305 299 295 291 287 296 310 316 317 317 317 316 315 314 313 311 309 308 305 301 297 294 290 287 284 282 281 279 277 276
175 175 179 185 224 259 284 299 297 298 291 288 285 281 279 280 278 277 278 298 308 314 315 315 315 313 311 310 309 308 306 303 300 296 293 289 286 283 279 278 276 274 272
181 178 183 200 218 225 243 259 273 265 263 267 271 274 272 267 269 273 279 276 287 305 311 314 314 310 309 309 308 306 304 301 299 295 291 287 283 279 277 274 273 271 269
184 180 188 208 213 209 222 243 252 257 259 264 267 269 268 266 267 271 274 274 275 285 301 309 310 310 310 308 306 304 303 300 297 294 289 285 281 276 273 271 269 267 266
188 184 195 209 206 207 220 244 244 230 255 266 269 265 257 258 265 274 273 272 270 275 280 301 308 311 309 307 305 304 302 300 297 293 289 284 280 275 270 267 265 264 262
192 188 198 209 204 208 223 229 245 244 240 257 276 278 266 262 261 260 263 268 268 277 285 287 294 301 304 306 305 304 302 299 297 294 289 285 280 275 269 264 262 260 259
193 190 199 202 202 210 222 222 231 257 258 243 269 278 266 256 249 250 248 257 265 273 276 281 283 284 294 299 303 302 299 298 296 295 290 284 279 274 268 262 259 257 256
195 196 197 201 203 211 223 224 214 234 257 250 259 305 311 290 249 246 244 254 262 264 272 283 281 284 284 284 289 298 298 296 295 294 292 286 280 274 267 261 258 255 252
196 196 194 197 202 203 217 221 211 216 243 249 203 221 283 291 304 255 238 251 253 257 265 272 277 279 285 287 287 294 293 293 294 294 293 290 283 277 269 261 258 253 250
196 196 196 197 203 206 215 223 218 211 220 248 233 217 220 236 285 301 277 250 249 263 262 275 280 280 281 281 282 291 294 293 293 294 295 294 290 283 273 264 259 252 247
198 198 199 199 204 209 214 219 222 218 216 231 233 228 236 242 233 261 289 294 277 253 257 260 268 273 277 277 277 283 290 293 295 297 298 297 296 294 284 274 267 258 248
200 202 203 202 206 209 215 220 223 225 228 232 239 234 232 239 245 246 272 289 292 283 259 257 264 268 271 273 278 289 294 295 297 299 300 300 299 298 296 290 280 270 257
202 206 203 203 207 212 217 218 221 228 229 232 237 241 241 244 249 255 268 281 287 288 268 251 252 260 269 270 277 288 292 294 297 298 300 300 300 297 297 298 291 283 271
202 195 199 204 208 211 218 217 224 231 231 235 244 243 246 250 249 251 259 275 287 290 282 261 245 249 263 268 275 287 290 293 295 297 298 298 298 296 293 295 295 291 284
195 193 197 203 209 213 217 217 229 233 235 239 246 248 249 255 253 252 255 257 270 288 292 289 270 248 261 267 275 279 277 286 291 294 295 296 296 295 293 291 292 292 288
194 190 197 203 209 214 218 220 232 236 239 245 246 250 253 256 257 257 257 257 255 265 280 286 280 271 272 277 281 282 281 287 293 295 293 292 291 291 291 289 285 287 285
195 198 199 203 210 215 217 223 234 236 242 251 252 252 256 258 260 262 261 260 260 262 273 283 279 276 270 272 277 275 274 275 280 286 289 289 288 286 285 285 282 284 282
197 199 199 204 212 216 216 223 237 242 242 251 255 256 260 262 262 263 264 265 265 263 268 280 282 279 273 272 271 271 277 277 276 283 286 287 285 283 281 280 278 279 279
195 196 197 205 212 215 219 226 234 242 244 249 254 256 260 262 266 265 266 268 268 267 264 270 277 277 275 271 273 274 272 272 275 279 285 287 286 284 282 279 275 274 275
194 196 200 205 211 214 221 229 234 242 247 251 253 254 256 257 262 266 268 266 267 267 266 268 273 276 275 270 268 276 280 273 274 278 281 281 282 283 282 279 275 272 270
196 194 197 204 209 213 220 225 234 241 245 253 255 253 254 258 264 273 277 275 271 272 274 273 276 281 281 282 279 277 279 281 274 269 272 273 276 276 279 279 275 270 267
193 189 196 201 209 217 233 241 243 237 242 249 256 256 256 267 276 283 289 292 289 286 287 286 287 286 286 284 282 278 279 281 281 256 260 271 267 270 267 262 265 264 261
191 192 197 200 213 225 236 247 256 256 248 247 251 258 266 267 284 282 286 288 289 289 291 291 287 284 285 284 280 276 269 267 269 267 270 275 267 268 264 262 263 259 255
191 195 199 203 213 226 235 247 256 259 252 247 247 250 259 268 273 281 276 278 268 270 278 281 269 273 275 276 269 270 271 271 268 262 254 267 267 265 267 258 260 254 249
192 195 197 201 210 225 234 245 254 248 252 251 250 253 259 264 279 290 294 289 282 279 291 294 296 300 302 304 302 296 288 283 281 276 251 255 268 273 265 251 247 248 244
194 192 199 201 207 217 229 239 248 242 251 257 257 255 269 279 289 296 298 292 292 292 289 291 297 299 296 292 297 294 285 279 279 279 245 246 263 276 281 253 238 237 236